Back to catalog

STARLINK-34298

AliveCommunicationsVLEO
NORAD 64269·PAYLOAD·🇺🇸 United States

Launched Jun 4, 2025 from Vandenberg Space Force Base

Loading…

Next Passes (next 24 hours)

TLE

FreshSource: CelesTrak SupGP

Epoch: Sep 14, 2026, 20:45 UTC

1 64269C 25120P   26257.86506944 -.00013932  00000+0 -41175-3 0  2578
2 64269  53.1596 312.2566 0001183  83.5656 166.2028 15.34387941    10

Track STARLINK-34298 in real time with AllMySat

Download on the App Store